DMSP 5D-2 F13 DEB, 40437

Orbit data source: Space-Track

DMSP 5D-2 F13 DEB, 40437 is space debris in SSO originally from a launch on Fri, 24 Mar 1995 UTC launched from the Air Force Western Test Range (AFWTR). Debris objects in space refer to the collection of defunct objects orbiting the Earth. Examples of debris include non-operational satellites, rocket bodies, and fragments generated from explosions, collisions, or faulty payload assembly.

Loading next visibility...
Identifier
40437, 1995-015AP
Orbit
SSO
Last TLE update
1 day ago
Origin
Manufacturer
Unknown
Mission
Spacecraft
Bus & Motor
Unknown
Mass
Unknown
Launch date (UTC)
1995-03-24 (30 years ago)
Launch vehicle
Unknown
Launch site
Air Force Western Test Range (AFWTR)
Object type
Payload
Rocket body
Debris
Shape & HBR
Unknown
Radar Cross Section
Small (<0.1 m²)

Expand to show TLE details & history

TLE from 1 day ago
0 DMSP 5D-2 F13 DEB
1 40437U 95015AP  25114.57622225  .00036242  00000-0  79022-2 0  9991
2 40437  98.6673 165.7758 0007849 279.3068  80.7242 14.57719954528719
Epoch: 2025-04-24T13:49Z
Definitive object data (Epoch: 2025-04-24T13:49:45.602Z)
Latitude
0.00002°
Longitude
105.49012°
Altitude
702.621 km
Speed
7.505 km/s
True Right ascension
11h 03m 06s
True Declination
0° 00' 00"
Sunlit
Object was in full shadow at TLE epoch
Visualization TLE readout
Latitude
41.59337°
Longitude
-65.67618°
Altitude
710.482 km
Speed
7.502 km/s
Apparent Right ascension
04h 05m 50s
Apparent Declination
20° 07' 54"
Sunlit
Object is in daylight
Visualization observer readout
Local Sidereal Time
22:25:17
Azimuth
77.179° E
Elevation
16.374°
Doppler factor
1
Orbital elements
Apogee altitude
703.206 km
Perigee altitude
692.098 km
Semi-major axis
7,075.789 km
Eccentricity
0.0007849
Inclination
98.6673°
RAAN
165.7758°
Arg. of periapsis
279.3068°
True anomaly
80.81298°
Mean anomaly
80.7242°
Eccentric anomaly
80.76859°
Mean motion
3.64654 °/min
BSTAR
0.0079022
Orbital period
98.72 mins
Loading maneuver chart data...
Loading SW <> Apogee altitude chart data...

DMSP 5D-2 F13 DEB Visibility forecast

Observer location: undefined°, undefined°

Span
Click to sort rows by Start time (UTC) header in descending order
Start Az.
Max El. time (UTC)
Max El. Az.
Max El.
End time (UTC)
End Az.
4 mins2025-04-25 15:10:13.492Z77.524° E2025-04-25 15:11:13.492Z92.998° ESE16.522°2025-04-25 15:14:13.492Z133.304° SE
7 mins2025-04-25 16:46:13.492Z352.707° N2025-04-25 16:49:13.492Z283.437° WNW36.115°2025-04-25 16:53:13.492Z217.378° SW
5 mins2025-04-26 02:14:13.492Z99.075° ESE2025-04-26 02:16:13.492Z69.089° E18.692°2025-04-26 02:19:13.492Z24.899° NE
7 mins2025-04-26 03:51:13.492Z201.428° SSW2025-04-26 03:54:13.492Z275.991° WNW33.778°2025-04-26 03:58:13.492Z332.228° NNW
|